[[{"header":{"parameterUnit":"m.s-1","parameterCategory":1,"la1":30.2991,"la2":30.254,"lo1":-89.0895,"lo2":-89.0444,"dy":0.0017,"dx":0.0017,"nx":28,"ny":28,"refTime":"2024-03-11T21:00:00:Z","depth":0,"parameterNumber":2,"parameterNumberName":"U-component_of_WINDS"},"data":[0,0,0,0,0,0,0,0,0,0,0,0,0,0,0,0,0,0,0,0,0,0,0,0,0,0,0,0,0,0,0,0,0,0,0,0,0,0,0,0,0,0,0,0,0,0,0,0,0,0,0,0,0,0,0,0,0,0,-1.4647,-1.4648,0,-1.4695,-1.4695,-1.4696,-1.4696,-1.4696,-1.4695,-1.4695,-1.4744,-1.4746,-1.4748,0,0,0,0,0,0,0,0,0,0,0,0,0,-1.4556,-1.4558,-1.4647,-1.4648,-1.4648,-1.4695,-1.4695,-1.4696,-1.4697,-1.4696,-1.4695,-1.4694,-1.4743,-1.4745,-1.4748,0,0,0,0,0,0,0,0,0,0,0,0,0,-1.4599,-1.4558,-1.4647,-1.4654,-1.4655,-1.4695,-1.4695,-1.4696,-1.4697,-1.4696,-1.4695,-1.4694,-1.4743,-1.4745,-1.4748,-1.4784,0,0,-1.4757,-1.4758,0,0,0,0,0,0,0,0,-1.4596,-1.4602,-1.4652,-1.4654,-1.4655,-1.4689,-1.4681,-1.4726,-1.4697,-1.4681,-1.4695,-1.4694,-1.4726,-1.473,-1.4741,-1.4786,-1.4788,-1.4757,-1.4759,-1.476,-1.4761,0,0,0,0,0,0,0,-1.4593,-1.46,-1.4666,-1.4653,-1.4655,-1.4655,-1.466,-1.469,-1.4708,-1.4682,-1.4682,-1.4688,-1.4727,-1.4739,-1.4743,-1.4789,-1.4757,-1.4759,-1.4761,-1.4762,-1.4864,-1.4865,0,0,0,0,0,0,-1.4589,-1.4598,-1.4664,-1.4667,-1.4623,-1.4657,-1.4663,-1.4679,-1.4708,-1.4711,-1.4689,-1.4688,-1.4734,-1.4739,-1.4744,-1.4787,-1.476,-1.4762,-1.4764,-1.4863,-1.4864,-1.4865,0,0,0,0,0,0,-1.4587,-1.4595,-1.4663,-1.4633,-1.4641,-1.466,-1.4678,-1.468,-1.4692,-1.4713,-1.4716,-1.4697,-1.4734,-1.474,-1.4774,-1.4788,-1.4764,-1.4766,-1.4861,-1.4863,-1.4864,-1.4873,0,0,0,0,0,0,-1.4584,-1.4594,-1.4608,-1.4633,-1.4643,-1.4691,-1.4679,-1.4682,-1.4697,-1.4696,-1.4722,-1.4725,-1.4734,-1.4769,-1.4776,-1.4792,-1.4768,-1.486,-1.4862,-1.4864,-1.4871,-1.4874,-1.4877,0,0,0,0,0,-1.4581,-1.4609,-1.4609,-1.4617,-1.466,-1.4692,-1.4698,-1.4707,-1.4698,-1.4712,-1.4725,-1.4724,-1.4786,-1.4773,-1.4781,-1.4797,-1.4859,-1.4862,-1.4864,-1.487,-1.4874,-1.4877,0,0,0,0,0,0,-1.4586,-1.4612,-1.4613,-1.4649,-1.4668,-1.4692,-1.471,-1.4711,-1.4733,-1.4731,-1.4742,-1.4747,-1.478,-1.4792,-1.4777,-1.4833,-1.4821,-1.4825,-1.4823,-1.4827,-1.483,-1.4826,-1.4771,0,0,0,0,0,-1.4591,-1.4614,-1.4636,-1.4667,-1.4676,-1.4691,-1.4705,-1.4711,-1.4731,-1.4739,-1.4755,-1.4774,-1.4798,-1.4813,-1.4837,-1.4873,-1.4878,-1.4888,-1.4891,-1.4894,-1.4897,-1.4915,-1.492,-1.4872,-1.4872,-1.4872,0,0,-1.4602,-1.462,-1.4634,-1.4668,-1.4683,-1.4707,-1.4698,-1.4724,-1.4741,-1.4743,-1.4775,-1.4787,-1.481,-1.4844,-1.486,-1.4855,-1.4911,-1.4896,-1.4898,-1.49,-1.4918,-1.4923,-1.4927,-1.4874,-1.4874,-1.4873,0,0,-1.4634,-1.465,-1.4676,-1.4692,-1.4715,-1.4725,-1.4731,-1.4755,-1.4763,-1.4795,-1.4796,-1.4817,-1.4858,-1.4874,-1.4887,-1.4924,-1.4924,-1.4932,-1.4946,-1.4965,-1.4968,-1.4972,-1.4984,-1.4988,-1.4935,-1.4935,-1.4935,0,-1.4645,-1.4681,-1.469,-1.4715,-1.473,-1.4732,-1.4758,-1.4773,-1.4803,-1.4812,-1.4807,-1.4857,-1.4873,-1.491,-1.4919,-1.493,-1.4937,-1.4928,-1.4967,-1.4971,-1.4974,-1.4985,-1.499,-1.4935,-1.4935,-1.4935,-1.4935,0,-1.4693,-1.4717,-1.4736,-1.4763,-1.478,-1.4806,-1.4818,-1.4834,-1.4838,-1.4848,-1.488,-1.4899,-1.4925,-1.4935,-1.4939,-1.4973,-1.4969,-1.4965,-1.4954,-1.4979,-1.499,-1.4994,-1.4936,-1.4936,-1.4936,-1.4936,0,0,-1.4729,-1.4761,-1.4767,-1.4779,-1.4805,-1.4824,-1.485,-1.4875,-1.4888,-1.4908,-1.4929,-1.4963,-1.4959,-1.4974,-1.498,-1.4997,-1.5023,-1.4991,-1.4991,-1.4995,-1.506,-1.5062,-1.5067,-1.5023,-1.5024,-1.5025,-1.5058,0,-1.4763,-1.4808,-1.4816,-1.4855,-1.4877,-1.488,-1.4902,-1.492,-1.493,-1.495,-1.4961,-1.4985,-1.4979,-1.4988,-1.5004,-1.5016,-1.5036,-1.5014,-1.5042,-1.5043,-1.5035,-1.5073,-1.5075,-1.5105,-1.5062,-1.5063,-1.5064,0,-1.4808,-1.4829,-1.487,-1.4891,-1.4901,-1.4921,-1.4944,-1.4963,-1.4983,-1.499,-1.5006,-1.501,-1.5036,-1.5024,-1.506,-1.5044,-1.5057,-1.5064,-1.5066,-1.5068,-1.5054,-1.5075,-1.5115,-1.5119,-1.5071,-1.507,-1.507,0,-1.4829,-1.4867,-1.4896,-1.4907,-1.4933,-1.4946,-1.4958,-1.4977,-1.4991,-1.5012,-1.5021,-1.5044,-1.5057,-1.5075,-1.5084,-1.5075,-1.5119,-1.5108,-1.5124,-1.5124,-1.5132,-1.5131,-1.5174,-1.5142,-1.5142,-1.5142,-1.5142,0,-1.4866,-1.489,-1.4906,-1.4924,-1.4951,-1.4961,-1.4987,-1.4999,-1.5016,-1.5035,-1.5039,-1.5058,-1.507,-1.509,-1.5098,-1.5125,-1.5131,-1.5137,-1.5138,-1.5136,-1.5135,-1.5143,-1.5141,-1.5143,-1.5143,-1.5142,-1.5142,0,-1.4893,-1.4905,-1.4936,-1.4958,-1.4964,-1.4983,-1.5001,-1.5019,-1.5029,-1.5053,-1.506,-1.5076,-1.5099,-1.5111,-1.5141,-1.5146,-1.5177,-1.5178,-1.517,-1.517,-1.5185,-1.5183,-1.5233,-1.524,-1.5204,-1.5205,-1.5205,0,-1.4915,-1.4934,-1.4957,-1.497,-1.4982,-1.5004,-1.5018,-1.5028,-1.5042,-1.5066,-1.508,-1.5104,-1.5123,-1.5161,-1.5175,-1.5197,-1.5198,-1.5214,-1.5202,-1.5198,-1.5197,-1.5195,-1.5197,-1.5216,-1.5217,-1.5217,-1.5217,0,-1.4952,-1.4957,-1.4977,-1.4999,-1.5016,-1.5034,-1.5052,-1.5062,-1.5075,-1.5091,-1.5115,-1.513,-1.516,-1.5183,-1.5206,-1.5218,-1.5219,-1.5221,-1.5226,-1.5223,-1.5217,-1.5219,-1.5175,-1.522,-1.5219,-1.5219,-1.5219,-1.5219,-1.4977,-1.4993,-1.5012,-1.5034,-1.5048,-1.5064,-1.5081,-1.5093,-1.5113,-1.5137,-1.5142,-1.5167,-1.5186,-1.5217,-1.523,-1.5249,-1.5246,-1.5253,-1.5254,-1.5256,-1.5256,-1.5214,-1.5254,-1.5254,-1.5254,-1.5254,-1.5254,0,-1.5013,-1.5025,-1.5045,-1.5069,-1.5087,-1.5086,-1.5106,-1.512,-1.5142,-1.5159,-1.5178,-1.5205,-1.5227,-1.5243,-1.5265,-1.5278,-1.5279,-1.5283,-1.5282,-1.5284,-1.5258,-1.5251,-1.5282,-1.5282,-1.5282,-1.5282,-1.5282,-1.5282,-1.5034,-1.5061,-1.5068,-1.5102,-1.5113,-1.5138,-1.5149,-1.5163,-1.5177,-1.5207,-1.5225,-1.5235,-1.5251,-1.5275,-1.5295,-1.5299,-1.5306,-1.5311,-1.5314,-1.5289,-1.5286,-1.5284,-1.5277,-1.5313,-1.5313,-1.5339,-1.5339,-1.5339]},{"header":{"parameterUnit":"m.s-1","parameterCategory":1,"la1":30.2991,"la2":30.254,"lo1":-89.0895,"lo2":-89.0444,"dy":0.0017,"dx":0.0017,"nx":28,"ny":28,"refTime":"2024-03-11T21:00:00:Z","depth":0,"parameterNumber":3,"parameterNumberName":"V-component_of_WINDS"},"data":[0,0,0,0,0,0,0,0,0,0,0,0,0,0,0,0,0,0,0,0,0,0,0,0,0,0,0,0,0,0,0,0,0,0,0,0,0,0,0,0,0,0,0,0,0,0,0,0,0,0,0,0,0,0,0,0,0,0,0.4252,0.4253,0,0.4331,0.4331,0.4332,0.4329,0.4328,0.4327,0.4326,0.4409,0.4412,0.4415,0,0,0,0,0,0,0,0,0,0,0,0,0,0.4103,0.4105,0.4252,0.4253,0.4254,0.433,0.4332,0.4333,0.4329,0.4328,0.4327,0.4325,0.4408,0.4411,0.4415,0,0,0,0,0,0,0,0,0,0,0,0,0,0.4173,0.4106,0.4252,0.4262,0.4263,0.433,0.4332,0.4333,0.433,0.4328,0.4326,0.4325,0.4406,0.4411,0.4416,0.4479,0,0,0.4431,0.4433,0,0,0,0,0,0,0,0,0.4169,0.4179,0.4259,0.4261,0.4263,0.4318,0.4309,0.4382,0.433,0.4305,0.4326,0.4324,0.438,0.4387,0.4405,0.4483,0.4486,0.4431,0.4434,0.4436,0.4438,0,0,0,0,0,0,0,0.4164,0.4175,0.4283,0.426,0.4263,0.4263,0.4271,0.4323,0.4351,0.4307,0.4307,0.4316,0.4381,0.4401,0.4407,0.4488,0.4431,0.4435,0.4438,0.444,0.4622,0.4624,0,0,0,0,0,0,0.4157,0.4171,0.4281,0.4286,0.4211,0.4267,0.4276,0.4302,0.435,0.4356,0.4317,0.4315,0.4393,0.4402,0.441,0.4489,0.4436,0.4441,0.4443,0.4621,0.4623,0.4625,0,0,0,0,0,0,0.4154,0.4167,0.4278,0.4228,0.4243,0.4271,0.4301,0.4305,0.4325,0.4358,0.4363,0.4332,0.4392,0.4403,0.4462,0.4491,0.4443,0.4447,0.4618,0.4621,0.4624,0.4645,0,0,0,0,0,0,0.4149,0.4166,0.4189,0.4229,0.4245,0.4327,0.4303,0.4307,0.4333,0.4331,0.4374,0.4379,0.4392,0.4455,0.4467,0.4497,0.4451,0.4616,0.462,0.4623,0.4641,0.4648,0.4653,0,0,0,0,0,0.4144,0.4192,0.419,0.4203,0.4275,0.4329,0.4338,0.4351,0.4335,0.436,0.4381,0.4378,0.4486,0.4461,0.4475,0.4507,0.4614,0.4619,0.4623,0.4639,0.4647,0.4653,0,0,0,0,0,0,0.4156,0.4197,0.4196,0.4258,0.429,0.4328,0.4359,0.4359,0.4397,0.4394,0.4409,0.4419,0.4478,0.4498,0.4469,0.4571,0.4548,0.4555,0.4556,0.4563,0.4569,0.4564,0.4455,0,0,0,0,0,0.4165,0.4204,0.4239,0.4291,0.4307,0.433,0.4354,0.4362,0.4396,0.4409,0.4435,0.4469,0.4511,0.4538,0.4578,0.4644,0.4654,0.4673,0.4679,0.4684,0.469,0.4728,0.4737,0.4639,0.4639,0.4639,0,0,0.4186,0.4213,0.4237,0.4294,0.4319,0.4361,0.4342,0.4386,0.4418,0.4416,0.4473,0.4494,0.4533,0.4596,0.4625,0.4614,0.4719,0.4689,0.4693,0.4697,0.4733,0.4742,0.4751,0.4642,0.4642,0.4641,0,0,0.4244,0.4269,0.4315,0.4341,0.4379,0.4395,0.4406,0.4445,0.4458,0.4515,0.4516,0.4554,0.4625,0.4653,0.4677,0.4747,0.4746,0.476,0.4791,0.4828,0.4835,0.4842,0.4869,0.4878,0.4766,0.4766,0.4766,0,0.4265,0.4327,0.4339,0.4384,0.4409,0.4409,0.4457,0.4482,0.4532,0.455,0.4537,0.4628,0.4654,0.4724,0.4741,0.476,0.4774,0.4755,0.4833,0.484,0.4847,0.4872,0.4882,0.4767,0.4767,0.4767,0.4767,0,0.4351,0.4394,0.4427,0.4475,0.4504,0.455,0.457,0.4598,0.4603,0.462,0.468,0.4711,0.4758,0.4775,0.478,0.4847,0.4839,0.4829,0.4807,0.4857,0.4882,0.4891,0.477,0.4769,0.4769,0.4768,0,0,0.442,0.4474,0.4486,0.4508,0.4551,0.4585,0.4631,0.4677,0.4701,0.4736,0.4777,0.4837,0.4829,0.4856,0.4865,0.4897,0.4952,0.4884,0.4885,0.4896,0.5028,0.5036,0.5047,0.4951,0.4953,0.4954,0.5025,0,0.4484,0.4565,0.4578,0.465,0.4691,0.4692,0.4733,0.4764,0.4782,0.482,0.4839,0.4883,0.4868,0.4884,0.4916,0.4938,0.4979,0.4933,0.499,0.4992,0.4981,0.5059,0.5067,0.5132,0.5035,0.5036,0.5037,0,0.4569,0.4606,0.4682,0.4721,0.4738,0.4774,0.4818,0.4853,0.489,0.49,0.4931,0.4936,0.4986,0.496,0.503,0.4999,0.5023,0.5038,0.504,0.5047,0.5018,0.5069,0.5153,0.5164,0.5052,0.5051,0.505,0,0.4613,0.4681,0.4736,0.4755,0.4801,0.4827,0.4847,0.4882,0.4909,0.4947,0.4965,0.5008,0.5032,0.5067,0.5084,0.5064,0.5153,0.5129,0.5164,0.5164,0.5184,0.5182,0.5274,0.5197,0.5197,0.5197,0.5197,0,0.4684,0.4731,0.4756,0.479,0.4843,0.4858,0.491,0.493,0.4961,0.5,0.5004,0.504,0.506,0.51,0.5114,0.517,0.5181,0.5192,0.5195,0.5192,0.5191,0.5209,0.5205,0.52,0.5199,0.5199,0.5198,0,0.4742,0.4761,0.4821,0.4859,0.487,0.4908,0.4941,0.4975,0.4992,0.5041,0.5054,0.5081,0.5128,0.5149,0.5207,0.5216,0.5281,0.5281,0.5269,0.527,0.5305,0.5302,0.5412,0.5428,0.534,0.5341,0.5341,0,0.4786,0.4822,0.4865,0.489,0.4911,0.4953,0.498,0.4996,0.5025,0.5069,0.5098,0.5145,0.5183,0.5259,0.5285,0.533,0.5331,0.5367,0.5338,0.5334,0.5333,0.5331,0.5336,0.5372,0.5373,0.5374,0.5375,0,0.4863,0.4871,0.491,0.4952,0.4985,0.5019,0.5053,0.5074,0.5095,0.5128,0.5175,0.5205,0.5265,0.5312,0.5358,0.5381,0.5382,0.5383,0.5394,0.5392,0.5384,0.539,0.5284,0.5381,0.538,0.538,0.538,0.5379,0.4917,0.495,0.4984,0.5028,0.5055,0.5086,0.512,0.5141,0.5181,0.523,0.5238,0.5289,0.5326,0.5388,0.5413,0.5454,0.5445,0.5461,0.5465,0.5469,0.5471,0.5377,0.5463,0.5462,0.5462,0.5462,0.5462,0,0.4996,0.5018,0.5058,0.5104,0.5139,0.5136,0.5173,0.5203,0.5248,0.5281,0.5319,0.5375,0.5421,0.5451,0.5497,0.5525,0.5527,0.5537,0.5536,0.5541,0.5476,0.5462,0.5535,0.5535,0.5535,0.5535,0.5535,0.5535,0.504,0.5096,0.5108,0.5177,0.5199,0.5249,0.5271,0.5301,0.5328,0.5389,0.5427,0.5446,0.5479,0.5528,0.5571,0.5578,0.5596,0.5607,0.5614,0.5553,0.5545,0.5538,0.5526,0.561,0.561,0.5676,0.5677,0.5677]}]]